Location: Svitavy
(49.7500°N, 16.4667°E)
Time: 07:37:45
(UTC+01:00)

ISS - Visible Passes

Search period start: 12 February 2026 00:00
Search period end: 22 February 2026 00:00
Orbit: 413 x 429 km, 51.6° (Epoch: 11 February)

Date Brightness Start Highest point End Pass type
(mag) Time Alt. Az. Time Alt. Az. Time Alt. Az.
12 Feb -1.2 06:21:08 10° SSW 06:23:43 21° SE 06:26:19 10° E visible
13 Feb -0.9 05:34:58 10° S 05:36:52 14° SE 05:38:46 10° ESE visible
14 Feb -2.7 06:22:59 10° SW 06:26:11 44° SSE 06:29:23 10° ENE visible
15 Feb -2.1 05:36:19 11° SSW 05:39:12 31° SSE 05:42:12 10° E visible
16 Feb -1.7 04:51:28 20° SSE 04:52:14 22° SE 04:54:51 10° E visible
16 Feb -3.7 06:25:23 10° WSW 06:28:43 84° SSE 06:32:05 10° ENE visible
17 Feb -0.7 04:06:29 13° ESE 04:06:29 13° ESE 04:07:15 10° ESE visible
17 Feb -3.5 05:39:28 20° SW 05:41:37 63° SSE 05:44:55 10° ENE visible
18 Feb -3.1 04:54:21 45° SSE 04:54:31 45° SSE 04:57:44 10° ENE visible
19 Feb -1.1 04:09:07 20° E 04:09:07 20° E 04:10:27 10° E visible
19 Feb -3.8 05:42:06 23° W 05:44:05 78° NNW 05:47:26 10° ENE visible
20 Feb -3.9 04:56:48 84° SSW 04:56:52 85° SSE 05:00:13 10° ENE visible
21 Feb -1.5 04:11:25 25° E 04:11:25 25° E 04:12:59 10° ENE visible
21 Feb -3.6 05:44:24 20° W 05:46:33 61° N 05:49:52 10° ENE visible
